Location: Beadle
(51.4667°N, 109.0000°W)
Time: 10:39:01
(UTC+00:00)

deb Explorer IX - Pass Details

Date: 02 June 2022
Orbit: 535 x 1068 km, 38.8° (Epoch: 04 July)

Event Time Altitude Azimuth Distance (km) Brightness Sun altitude
Rises 17:07:42 0° 239° (WSW) 3,846 ? 51.9°
Reaches altitude 10° 17:10:51 10° 228° (SW) 2,894 ? 52.3°
Maximum altitude 17:16:38 27° 174° (S) 1,876 ? 53.0°
Drops below altitude 10° 17:22:11 10° 119° (ESE) 2,763 ? 53.7°
Sets 17:25:07 0° 108° (ESE) 3,642 ? 54.0°
